Weather History for KMAF - January, 2013

Change the Weather History Date:

Thursday, January 10, 2013

  Actual Average Record
Temperature  
Mean Temperature 49 °F 43 °F  
Max Temperature 57 °F 57 °F 76 °F (1935)
Min Temperature 41 °F 30 °F 5 °F (1962)
Degree Days  
Heating Degree Days 16 22  
Month to date heating degree days 232 220  
Since 1 July heating degree days 1116 1336  
Moisture  
Dew Point 41 °F    
Average Humidity 76    
Maximum Humidity 100    
Minimum Humidity 51    
Precipitation  
Precipitation 0.03 in 0.01 in 1.12 in (1949)
Month to date precipitation 1.45 0.14  
Year to date precipitation 1.45 0.14  
Snow  
Snow 0.00 in - - ()
Month to date snowfall 1.0  
Since 1 July snowfall 1.0  
Snow Depth 0.00 in    
Sea Level Pressure  
Sea Level Pressure 29.95 in    
Wind  
Wind Speed 11 mph (West)    
Max Wind Speed 23 mph    
Max Gust Speed 26 mph    
Visibility 9 miles    
Events Rain    
T = Trace of Precipitation, MM = Missing Value Source: NWS Daily Summary

Daily Weather History Graph

Daily Weather History Graph

Search for Another Location

Airport or City:

Trip Planner

Search our weather history database for the weather conditions in past years. The results will help you decide how hot, cold, wet, or windy it might be!

Date:

Astronomy

Jan. 10, 2013 Rise Set
Actual Time 7:50 AM CST 6:03 PM CST
Civil Twilight 7:23 AM CST 6:29 PM CST
Nautical Twilight 6:53 AM CST 6:59 PM CST
Astronomical Twilight 6:23 AM CST 7:29 PM CST
Moon 6:32 AM CST (1/10) 5:12 PM CST (1/10)
Length of Visible Light 11h 06m
Length of Day
10h 13m
Waning Crescent, 2% of the Moon is Illuminated
Jan 10
Waning Crescent
Jan 11
New
Jan 18
First Quarter
Jan 26
Full
Feb 3
Last Quarter

Hourly Weather History & Observations

Time (CST) Temp. Windchill Dew Point Humidity Pressure Visibility Wind Dir Wind Speed Gust Speed Precip Events Conditions
12:09 AM 41.0 °F - 41.0 °F 100% 30.02 in 4.0 mi Calm Calm - 0.00 in Rain Light Rain
12:53 AM 41.0 °F 38.0 °F 41.0 °F 100% 29.99 in 3.0 mi NW 4.6 mph - 0.02 in Rain Light Rain
1:15 AM 41.0 °F 39.0 °F 41.0 °F 100% 30.01 in 3.0 mi NW 3.5 mph - 0.00 in   Overcast
1:53 AM 42.1 °F 38.4 °F 42.1 °F 100% 29.98 in 4.0 mi WNW 5.8 mph - 0.01 in   Overcast
2:53 AM 41.0 °F 37.1 °F 41.0 °F 100% 29.96 in 10.0 mi WNW 5.8 mph - N/A   Overcast
3:24 AM 41.0 °F 37.1 °F 41.0 °F 100% 29.98 in 10.0 mi WNW 5.8 mph - N/A   Overcast
3:53 AM 41.0 °F 35.8 °F 41.0 °F 100% 29.95 in 10.0 mi West 8.1 mph - N/A   Overcast
4:07 AM 41.0 °F 35.8 °F 41.0 °F 100% 29.97 in 10.0 mi West 8.1 mph - N/A   Overcast
4:53 AM 42.1 °F 37.1 °F 41.0 °F 96% 29.95 in 10.0 mi West 8.1 mph - N/A   Overcast
5:40 AM 42.8 °F 36.2 °F 42.8 °F 100% 29.96 in 3.0 mi West 12.7 mph - N/A   Overcast
5:53 AM 42.1 °F 35.7 °F 42.1 °F 100% 29.94 in 4.0 mi WNW 11.5 mph - N/A   Overcast
6:26 AM 42.8 °F 37.5 °F 42.8 °F 100% 29.97 in 10.0 mi West 9.2 mph - N/A   Overcast
6:53 AM 42.1 °F 36.1 °F 42.1 °F 100% 29.96 in 10.0 mi WNW 10.4 mph - N/A   Overcast
7:46 AM 42.8 °F 36.6 °F 41.0 °F 93% 30.00 in 10.0 mi West 11.5 mph - N/A   Overcast
7:53 AM 42.1 °F 35.7 °F 41.0 °F 96% 29.98 in 10.0 mi West 11.5 mph - N/A   Overcast
8:21 AM 42.8 °F 36.2 °F 41.0 °F 93% 30.01 in 10.0 mi WNW 12.7 mph 19.6 mph N/A   Scattered Clouds
8:49 AM 42.8 °F 36.6 °F 41.0 °F 93% 30.02 in 10.0 mi West 11.5 mph - N/A   Partly Cloudy
8:53 AM 42.1 °F 36.1 °F 41.0 °F 96% 29.99 in 10.0 mi West 10.4 mph - N/A   Partly Cloudy
9:12 AM 42.8 °F 36.2 °F 42.8 °F 100% 30.03 in 10.0 mi West 12.7 mph - N/A   Mostly Cloudy
9:53 AM 44.1 °F 37.4 °F 41.0 °F 89% 29.99 in 10.0 mi West 13.8 mph - N/A   Mostly Cloudy
10:00 AM 44.6 °F 38.1 °F 42.8 °F 93% 30.01 in 10.0 mi West 13.8 mph - N/A   Clear
10:53 AM 46.9 °F - 42.1 °F 83% 29.99 in 10.0 mi West 12.7 mph - N/A   Clear
11:15 AM 48.2 °F - 42.8 °F 82% 30.02 in 10.0 mi West 17.3 mph - N/A   Mostly Cloudy
11:53 AM 48.0 °F - 42.1 °F 80% 29.97 in 10.0 mi West 12.7 mph - N/A   Mostly Cloudy
12:00 PM 46.4 °F 39.8 °F 41.0 °F 81% 30.01 in 10.0 mi West 16.1 mph - N/A   Overcast
12:32 PM 50.0 °F - 42.8 °F 76% 29.98 in 10.0 mi West 18.4 mph - N/A   Scattered Clouds
12:53 PM 51.1 °F - 42.1 °F 71% 29.92 in 10.0 mi West 17.3 mph - N/A   Partly Cloudy
1:53 PM 55.0 °F - 42.1 °F 62% 29.88 in 10.0 mi WSW 19.6 mph 26.5 mph N/A   Clear
2:53 PM 55.9 °F - 41.0 °F 57% 29.87 in 10.0 mi WSW 16.1 mph - N/A   Clear
3:53 PM 55.9 °F - 39.0 °F 53% 29.86 in 10.0 mi WSW 12.7 mph 21.9 mph N/A   Clear
4:53 PM 55.0 °F - 37.0 °F 51% 29.88 in 10.0 mi WSW 16.1 mph - N/A   Clear
5:53 PM 53.1 °F - 39.9 °F 61% 29.87 in 10.0 mi South 8.1 mph - N/A   Clear
6:53 PM 51.1 °F - 39.9 °F 66% 29.88 in 10.0 mi SSW 10.4 mph - N/A   Clear
7:53 PM 48.9 °F - 39.0 °F 69% 29.86 in 10.0 mi South 9.2 mph - N/A   Clear
8:53 PM 48.0 °F - 39.0 °F 71% 29.86 in 10.0 mi SSW 8.1 mph - N/A   Clear
9:53 PM 48.9 °F - 39.0 °F 69% 29.86 in 10.0 mi SSW 11.5 mph - N/A   Clear
10:53 PM 48.0 °F - 39.9 °F 74% 29.85 in 10.0 mi SSW 13.8 mph - N/A   Clear
11:53 PM 46.9 °F - 41.0 °F 80% 29.85 in 10.0 mi SSW 13.8 mph - N/A   Clear